Preview of NWS' New Version of Forecast
This preview is not operational and should not be used for support decisions.

Regional Weather Roundup (RWR)

Issued by National Weather Service (NWS)

                            
000
ASUS44 KJAN 182210
RWRMS 

MISSISSIPPI HOURLY WEATHER ROUNDUP
NATIONAL WEATHER SERVICE JACKSON MS
500 PM CDT TUE JUN 18 2019

NOTE: "FAIR: INDICATES FEW OR NO CLOUDS BELOW 12,000 FEET WITH NO
SIGNIFICANT WEATHER AND/OR OBSTRUCTIONS TO VISIBILITY.

MSZ001>002-007>008-010>013-018>021-025>028-034>036-182300-
NORTHWEST MISSISSIPPI
  
CITY           SKY/WX    TMP DP  RH WIND       PRES   REMARKS
BATESVILLE     FAIR      82  72  69 CALM      29.83F                  
CLARKSDALE     SUNNY     91  68  46 W8G15     29.83F HX  95           
CLEVELAND      MOCLDY    85  71  64 SW5       29.83F HX  90           
GREENWOOD      PTSUNNY   87  69  54 VRB5      29.83F HX  91           
GREENVILLE     FAIR      87  70  56 W8        29.83F HX  92           
OLIVE BRANCH   PTSUNNY   82  75  78 S7        29.83F                  
OXFORD         FAIR      82  70  65 CALM      29.86F                  
TUNICA           N/A     86  68  54 CALM      29.83F                  
WINONA         FAIR      86  71  61 W5        29.84F HX  91           
$$

MSZ003>006-009-014>017-022>024-029>033-037>039-182300-
NORTHEAST MISSISSIPPI
  
CITY           SKY/WX    TMP DP  RH WIND       PRES   REMARKS
ABERDEEN       CLOUDY    79  79 100 VRB6      29.87S                  
COLUMBUS AFB   FAIR      84  72  68 W10       29.85F                  
CORINTH        MOCLDY    82  72  69 NE3       29.84F                  
GOLDN TRIANGLE PTSUNNY   82  74  76 CALM      29.86S                  
STARKVILLE     CLOUDY    84  73  70 N5        29.87S HX  91           
TUPELO         CLOUDY    81  70  69 VRB3      29.84F                  
$$

MSZ040-058-182300-
CENTRAL MISSISSIPPI
  
CITY           SKY/WX    TMP DP  RH WIND       PRES   REMARKS
JACKSON INTL   FAIR      90  69  50 W8        29.85F HX  94           
JACKSON HAWKNS FAIR      87  70  56 SW7       29.86F HX  92           
MADISON        FAIR      86  70  58 SW8       29.86S HX  90           
MERIDIAN KEY   FAIR      90  71  53 SW7       29.86F HX  96           
MERIDIAN NAS   PTSUNNY   87  70  56 W9        29.86F HX  92           
RAYMOND          N/A     88  73  62 W10       29.85F HX  96           
VICKSBURG VKS  CLEAR     88  72  58 S9        29.85F HX  94           
$$

MSZ059>079-182300-
SOUTH MISSISSIPPI
  
CITY           SKY/WX    TMP DP  RH WIND       PRES   REMARKS
BROOKHAVEN     FAIR      88  72  58 SE5       29.89F HX  94           
HATTIESBURG    PTSUNNY   86  71  60 SW3       29.88F HX  91           
LAUREL         CLEAR     87  74  64 S6        29.87F HX  95           
MCCOMB         FAIR      90  70  51 W8        29.87F HX  95           
NATCHEZ        FAIR      89  71  55 VRB7      29.87S HX  95           
PINE BELT      PTSUNNY   86  75  69 VRB3      29.89S HX  95           
$$

MSZ080>082-182300-
COASTAL MISSISSIPPI
  
CITY           SKY/WX    TMP DP  RH WIND       PRES   REMARKS
BILOXI         FAIR      80  74  81 W7        29.90S                  
PASCAGOULA     LGT RAIN  78  74  87 CALM      29.91F                  
GULFPORT       FAIR      83  73  72 SW8       29.89S                  
$$

LAZ007>009-015>016-023>026-182300-
NORTHEAST LOUISIANA
  
CITY           SKY/WX    TMP DP  RH WIND       PRES   REMARKS
BASTROP        FAIR      88  68  50 W7        29.85F HX  91           
TALLULAH/VBURG FAIR      88  74  63 VRB5      29.85F HX  96           
VIDALIA        FAIR      89  71  55 SE8       29.85S HX  95           
$$